User: anonymous   Login
Location: Wildlife_Club
(35.6000°N, 81.4330°W)
Time: 04:09:54
(UTC-04:00)
Language:

Cosmos 1782 - Orbit

View from above orbital plane
View from above orbital plane
View from above satellite
View from above satellite

Ground track
Ground track

The orbit data is extracted from the following two-line orbital elements,

1 16986U 86074A   14304.10196100  .00004364  00000-0  31783-3 0  8884
2 16986 082.5085 333.7973 0012216 024.7975 335.3836 15.03493685526391
Epoch (UTC): 31 October 2014 02:26:49
Eccentricity: 0.0012216
inclination: 82.5085°
perigee height: 547 km
apogee height: 564 km
right ascension of ascending node: 333.7973°
argument of perigee: 24.7975°
revolutions per day: 15.03493685
mean anomaly at epoch: 335.3836°
orbit number at epoch: 52639

The dashed part of the orbit path shows where the satellite is in the earth's shadow,  

DLR